This is the latest recevied weather packets stored in our database for station/object PU5BHV. If no packets are shown the sender has not sent any weather packets the latest 10 day(s).
| Time | Temp. | Humidity | Pressure | Rain* | Wind** | Luminosity | Snow |
|---|---|---|---|---|---|---|---|
| 1778069253 | 20° C | 99% | 1021.5 hPa | 0 mm | - | 83 W/m² | - |
| 1778068951 | 20° C | 99% | 1021.3 hPa | 0 mm | - | 85 W/m² | - |
| 1778068649 | 20° C | 99% | 1021.5 hPa | 0 mm | - | 75 W/m² | - |
| 1778068347 | 20° C | 99% | 1021.3 hPa | 0 mm | - | 60 W/m² | - |
| 1778068044 | 20° C | 99% | 1021.3 hPa | 0 mm | - | 55 W/m² | - |
| 1778067742 | 20° C | 99% | 1021.1 hPa | 0 mm | - | 48 W/m² | - |
| 1778067440 | 20° C | 99% | 1021.2 hPa | 0 mm | - | 47 W/m² | - |
| 1778067137 | 20° C | 99% | 1021.2 hPa | 0 mm | - | 44 W/m² | - |
| 1778066833 | 20° C | 99% | 1021.2 hPa | 0 mm | - | 41 W/m² | - |
| 1778066531 | 20° C | 99% | 1021.2 hPa | 0 mm | - | 35 W/m² | - |
| 1778066228 | 20° C | 99% | 1021.1 hPa | 0 mm | - | 35 W/m² | - |
| 1778065926 | 20° C | 99% | 1021.2 hPa | 0 mm | - | 29 W/m² | - |
| 1778065623 | 20° C | 99% | 1021.1 hPa | 0 mm | - | 27 W/m² | - |
| 1778065321 | 20° C | 99% | 1021 hPa | 0 mm | - | 26 W/m² | - |
| 1778065017 | 20° C | 99% | 1021.1 hPa | 0 mm | - | 22 W/m² | - |
| 1778064714 | 20° C | 99% | 1020.7 hPa | 0 mm | - | 20 W/m² | - |
| 1778064412 | 19.44° C | 99% | 1020.7 hPa | 0 mm | - | 19 W/m² | - |
| 1778064109 | 19.44° C | 99% | 1020.6 hPa | 0 mm | - | 19 W/m² | - |
| 1778063806 | 19.44° C | 99% | 1020.7 hPa | 0 mm | - | 16 W/m² | - |
| 1778063503 | 19.44° C | 99% | 1020.5 hPa | 0 mm | - | 11 W/m² | - |
| 1778063201 | 19.44° C | 99% | 1020.6 hPa | 0 mm | - | 12 W/m² | - |
| 1778062898 | 19.44° C | 99% | 1020.5 hPa | 0 mm | - | 9 W/m² | - |
| 1778062595 | 19.44° C | 99% | 1020.5 hPa | 0 mm | - | 6 W/m² | - |
| 1778062292 | 19.44° C | 99% | 1020.4 hPa | 0 mm | - | 4 W/m² | - |
| 1778061991 | 19.44° C | 99% | 1020.4 hPa | 0 mm | - | 3 W/m² | - |
* Rain latest hour (hover to see other rain measurements)
** Current wind speed in m/s (hover to see current wind gust speed)